Time,TemperatureF,DewpointF,PressureIn,WindDirection,WindDirectionDegrees,WindSpeedMPH,WindSpeedGustMPH,Humidity,HourlyPrecipIn,Conditions,Clouds,dailyrainin,SoftwareType,DateUTC
2013-08-05 00:12:00,63.0,59.0,-100.00,SE,140,6.0,11.0,84,0.00,,,0.00,,2013-08-05 05:12:00,
2013-08-05 00:22:00,63.0,59.0,-100.00,SE,125,5.0,7.0,84,0.00,,,0.00,,2013-08-05 05:22:00,
2013-08-05 01:02:00,62.0,61.0,-100.00,West,270,3.0,4.0,92,0.00,,,0.00,,2013-08-05 06:02:00,
2013-08-05 01:12:00,62.0,61.0,-100.00,WSW,250,4.0,5.0,94,0.00,,,0.00,,2013-08-05 06:12:00,
2013-08-05 01:22:00,62.0,61.0,-100.00,NW,315,9.0,12.0,94,0.00,,,0.00,,2013-08-05 06:22:00,
2013-08-05 02:02:00,61.0,61.0,-100.00,SE,125,8.0,11.0,98,0.00,,,0.00,,2013-08-05 07:02:00,
2013-08-05 02:12:00,61.0,61.0,-100.00,ESE,105,7.0,11.0,98,0.00,,,0.00,,2013-08-05 07:12:00,
2013-08-05 02:22:00,61.0,61.0,-100.00,ESE,105,7.0,9.0,98,0.00,,,0.00,,2013-08-05 07:22:00,
2013-08-05 03:34:00,61.0,61.0,-100.00,South,175,4.0,6.0,98,0.00,,,0.00,,2013-08-05 08:34:00,
2013-08-05 04:06:00,61.0,61.0,-100.00,SSE,165,2.0,4.0,98,0.00,,,0.00,,2013-08-05 09:06:00,
2013-08-05 04:16:00,61.0,61.0,-100.00,South,170,4.0,6.0,98,0.00,,,0.00,,2013-08-05 09:16:00,
2013-08-05 04:27:00,62.0,61.0,-100.00,South,170,4.0,6.0,98,0.00,,,0.00,,2013-08-05 09:27:00,
2013-08-05 04:38:00,62.0,61.0,-100.00,SSE,160,4.0,5.0,98,0.00,,,0.00,,2013-08-05 09:38:00,
2013-08-05 04:48:00,62.0,61.0,-100.00,South,180,4.0,7.0,98,0.00,,,0.00,,2013-08-05 09:48:00,
2013-08-05 05:52:00,63.0,63.0,-100.00,South,190,7.0,10.0,97,0.00,,,0.00,,2013-08-05 10:52:00,
2013-08-05 06:08:00,63.0,63.0,-100.00,South,180,7.0,10.0,97,0.00,,,0.00,,2013-08-05 11:08:00,
2013-08-05 06:14:00,63.0,63.0,-100.00,South,185,5.0,7.0,97,0.00,,,0.00,,2013-08-05 11:14:00,
2013-08-05 06:27:00,63.0,63.0,-100.00,South,185,5.0,7.0,97,0.00,,,0.00,,2013-08-05 11:27:00,
2013-08-05 07:06:00,63.0,63.0,-100.00,South,190,3.0,7.0,96,0.00,,,0.00,,2013-08-05 12:06:00,
2013-08-05 07:16:00,63.0,63.0,-100.00,South,190,4.0,6.0,96,0.00,,,0.00,,2013-08-05 12:16:00,
2013-08-05 07:47:00,63.0,63.0,-100.00,SSW,195,4.0,5.0,96,0.00,,,0.00,,2013-08-05 12:47:00,
2013-08-05 08:43:00,65.0,63.0,-100.00,SSW,210,4.0,7.0,93,0.00,,,0.00,,2013-08-05 13:43:00,
2013-08-05 09:37:00,69.0,63.0,-100.00,SW,225,6.0,11.0,82,0.00,,,0.00,,2013-08-05 14:37:00,
2013-08-05 10:14:00,72.0,64.0,-100.00,WSW,245,5.0,8.0,77,0.00,,,0.00,,2013-08-05 15:14:00,
2013-08-05 11:16:00,74.0,64.0,-100.00,SSW,205,3.0,7.0,70,0.00,,,0.00,,2013-08-05 16:16:00,
2013-08-05 12:16:00,76.0,64.0,-100.00,WSW,255,5.0,10.0,66,0.00,,,0.00,,2013-08-05 17:16:00,
2013-08-05 13:08:00,77.0,63.0,-100.00,WNW,285,9.0,16.0,60,0.00,,,0.00,,2013-08-05 18:08:00,
2013-08-05 13:13:00,76.0,63.0,-100.00,NW,320,10.0,12.0,63,0.00,,,0.00,,2013-08-05 18:13:00,
2013-08-05 13:53:00,77.0,63.0,-100.00,West,280,9.0,14.0,62,0.00,,,0.00,,2013-08-05 18:53:00,
2013-08-05 14:14:00,76.0,61.0,-100.00,NW,310,10.0,13.0,58,0.00,,,0.00,,2013-08-05 19:14:00,
2013-08-05 14:26:00,77.0,63.0,-100.00,NW,325,7.0,14.0,61,0.00,,,0.00,,2013-08-05 19:26:00,
2013-08-05 15:08:00,79.0,63.0,-100.00,West,275,11.0,16.0,57,0.00,,,0.00,,2013-08-05 20:08:00,
2013-08-05 15:15:00,80.0,63.0,-100.00,WNW,285,11.0,16.0,56,0.00,,,0.00,,2013-08-05 20:15:00,
2013-08-05 16:26:00,78.0,64.0,-100.00,NW,310,14.0,20.0,64,0.00,,,0.00,,2013-08-05 21:26:00,
2013-08-05 16:33:00,77.0,64.0,-100.00,WNW,295,12.0,19.0,63,0.00,,,0.00,,2013-08-05 21:33:00,
2013-08-05 16:53:00,76.0,63.0,-100.00,NW,315,16.0,22.0,64,0.00,,,0.00,,2013-08-05 21:53:00,
2013-08-05 17:05:00,75.0,63.0,-100.00,NW,305,14.0,24.0,64,0.00,,,0.00,,2013-08-05 22:05:00,
2013-08-05 17:13:00,76.0,63.0,-100.00,NW,315,12.0,20.0,65,0.00,,,0.00,,2013-08-05 22:13:00,
2013-08-05 17:25:00,75.0,63.0,-100.00,WNW,285,16.0,20.0,63,0.00,,,0.00,,2013-08-05 22:25:00,
2013-08-05 19:02:00,72.0,61.0,-100.00,WNW,300,9.0,15.0,65,0.00,,,0.00,,2013-08-06 00:02:00,
2013-08-05 19:15:00,71.0,61.0,-100.00,NW,315,11.0,16.0,67,0.00,,,0.00,,2013-08-06 00:15:00,
2013-08-05 19:24:00,71.0,61.0,-100.00,NW,310,9.0,14.0,66,0.00,,,0.00,,2013-08-06 00:24:00,
2013-08-05 20:14:00,69.0,61.0,-100.00,NW,320,6.0,10.0,73,0.00,,,0.00,,2013-08-06 01:14:00,
2013-08-05 20:38:00,67.0,61.0,-100.00,NNW,330,4.0,6.0,80,0.00,,,0.00,,2013-08-06 01:38:00,
2013-08-05 21:15:00,64.0,59.0,-100.00,NW,320,3.0,4.0,84,0.00,,,0.00,,2013-08-06 02:15:00,
2013-08-05 22:15:00,61.0,59.0,-100.00,WNW,295,3.0,4.0,91,0.00,,,0.00,,2013-08-06 03:15:00,